Home   Weather   Lille   Past weeks
Flag for France

Past Weather in Lille, Hauts-de-France, France — Yesterday and Last 2 Weeks

Now
55 °F

Passing clouds.


Feels Like: 54 °F
Forecast: 60 / 51 °F
Wind: 7 mph from West

Location: Lille Airport

Current Time: May 27, 2019 at 6:22:54 am

Latest Report: May 27, 2019 at 5:30 am


Visibility: 4 mi

Pressure: 29.86 "Hg

Humidity: 100%

Dew Point: 55 °F

Location of LilleLocation

Past Weather in Lille — Graph

°F

Lille Temperature Yesterday

Maximum temperature yesterday: 66 °F (at 6:00 pm)
Minimum temperature yesterday: 50 °F (at 4:00 am)
Average temperature yesterday: 59 °F

High & Low Weather Summary for the Past Weeks

 TemperatureHumidityPressure
High73 °F (May 23, 4:00 pm)100% (May 18, 2:30 am)30.69 "Hg (May 18, 2:30 am)
Low39 °F (May 12, 5:00 am)27% (May 15, 8:30 pm)29.68 "Hg (May 17, 6:30 pm)
Average57 °F68%30.07 "Hg
* Reported May 12 5:00 am — May 27 5:00 am, Lille. Weather by CustomWeather, © 2019

Note: Actual official high and low records may vary slightly from our data, if they occured in-between our weather recording intervals... More about our weather records

Advertising

Lille Weather History for the Previous 24 Hours

Scroll right to see more
 ConditionsComfort  
Time TempWeatherWind HumidityBarometerVisibility
5:00 am
Mon, May 27
57 °FMostly cloudy.9 mph94%29.86 "Hg5 mi
4:30 am57 °FMostly cloudy.12 mph94%29.86 "Hg6 mi
4:00 am57 °FLow clouds.10 mph94%29.86 "HgN/A
3:30 am57 °FLow clouds.10 mph94%29.86 "HgN/A
3:00 am57 °FLow clouds.10 mph94%29.86 "HgN/A
2:30 am57 °FLow clouds.10 mph94%29.86 "HgN/A
2:00 am57 °FDrizzle. Fog.12 mph94%29.86 "Hg3 mi
1:30 am57 °FLow clouds.14 mph94%29.86 "Hg4 mi
1:00 am57 °FLow clouds.15 mph94%29.89 "HgN/A
12:30 am57 °FLow clouds.15 mph94%29.89 "HgN/A
12:00 am57 °FLow clouds.16 mph94%29.89 "HgN/A
11:30 pm
Sun, May 26
57 °FLow clouds.16 mph94%29.89 "HgN/A
11:00 pm57 °FOvercast.15 mph88%29.89 "HgN/A
10:30 pm57 °FOvercast.16 mph88%29.89 "HgN/A
10:00 pm57 °FOvercast.15 mph88%29.89 "HgN/A
9:30 pm57 °FLow clouds.14 mph94%29.89 "HgN/A
9:00 pm57 °FLight rain. Overcast.15 mph94%29.92 "Hg5 mi
8:30 pm61 °FOvercast.18 mph77%29.92 "HgN/A
8:00 pm61 °FMostly cloudy.17 mph72%29.92 "HgN/A
7:30 pm63 °FOvercast.20 mph68%29.92 "HgN/A
7:00 pm63 °FOvercast.18 mph68%29.92 "HgN/A
6:30 pm63 °FPartly sunny.21 mph68%29.92 "HgN/A
6:00 pm66 °FBroken clouds.18 mph60%29.92 "HgN/A
5:30 pm63 °FMore clouds than sun.18 mph68%29.95 "HgN/A
5:00 pm64 °FCloudy.18 mph64%29.95 "HgN/A
4:30 pm64 °FMostly cloudy.18 mph64%29.95 "HgN/A
4:00 pm64 °FMostly cloudy.16 mph68%29.95 "HgN/A
3:30 pm64 °FMostly cloudy.17 mph64%29.95 "HgN/A
3:00 pm64 °FMostly cloudy.14 mph68%29.98 "HgN/A
2:30 pm64 °FOvercast.17 mph68%29.98 "HgN/A
2:00 pm64 °FOvercast.18 mph68%29.98 "HgN/A
1:30 pm64 °FOvercast.16 mph68%29.98 "HgN/A
1:00 pm64 °FOvercast.15 mph73%30.01 "HgN/A
12:30 pm64 °FPartly sunny.17 mph68%30.01 "Hg6 mi
12:00 pm64 °FPartly sunny.16 mph73%30.01 "Hg6 mi
11:30 am64 °FPartly sunny.15 mph68%30.01 "Hg6 mi
11:00 am64 °FBroken clouds.16 mph73%30.01 "Hg6 mi
10:30 am64 °FOvercast.14 mph73%30.01 "Hg6 mi
10:00 am64 °FPartly sunny.13 mph73%30.01 "Hg6 mi
9:30 am63 °FScattered clouds.12 mph77%30.01 "Hg5 mi
9:00 am61 °FScattered clouds.10 mph83%30.01 "Hg5 mi
8:30 am57 °FPartly sunny.8 mph94%30.01 "Hg6 mi
8:00 am57 °FLow clouds.7 mph88%30.01 "Hg4 mi
7:30 am55 °FLow clouds.5 mph94%30.01 "Hg4 mi
7:00 am55 °FLow clouds.5 mph94%30.01 "Hg4 mi
6:30 am54 °FLow clouds.5 mph100%30.01 "Hg4 mi
6:00 am52 °FLow clouds.3 mph94%30.01 "Hg4 mi
Weather by CustomWeather, © 2019

See weather overview